Weather History for Monticello, AR

Change the Weather History Date:

Sunday, October 21, 2012

  Actual Average Record
Temperature  
Mean Temperature 72 °F -  
Max Temperature 82 °F 73 °F 88 °F (1953)
Min Temperature 61 °F 47 °F 26 °F (1976)
Cooling Degree Days 6    
Growing Degree Days 22 (Base 50)    
Moisture  
Dew Point 56 °F    
Average Humidity 60    
Maximum Humidity 68    
Minimum Humidity 50    
Precipitation  
Precipitation 0.00 in - - ()
Sea Level Pressure  
Sea Level Pressure 29.99 in    
Wind  
Wind Speed 7 mph (South)    
Max Wind Speed 15 mph    
Max Gust Speed 22 mph    
Visibility 10 miles    
Events Rain    
Averages and records for this station are not official NWS values.
T = Trace of Precipitation, MM = Missing Value Source: NWS Daily Summary

Daily Weather History Graph

Daily Weather History Graph

Search for Another Location

Airport:

Trip Planner

Search our weather history database for the weather conditions in past years. The results will help you decide how hot, cold, wet, or windy it might be!

Date:

Astronomy

Oct. 21, 2012 Rise Set
Actual Time 7:17 AM CDT 6:25 PM CDT
Civil Twilight 6:51 AM CDT 6:50 PM CDT
Nautical Twilight 6:22 AM CDT 7:19 PM CDT
Astronomical Twilight 5:53 AM CDT 7:48 PM CDT
Moon 1:32 PM CDT (10/21) No Moon Set
Length of Visible Light 11h 59m
Length of Day
11h 08m
Waxing Crescent, 45% of the Moon is Illuminated
Oct 21
Waxing Crescent
Oct 21
First Quarter
Oct 29
Full
Nov 6
Last Quarter
Nov 13
New

Hourly Weather History & Observations

Time (CDT) Temp. Heat Index Dew Point Humidity Pressure Visibility Wind Dir Wind Speed Gust Speed Precip Events Conditions
12:53 AM 61.0 °F - 48.9 °F 64% 29.93 in 10.0 mi South 5.8 mph - N/A   Clear
1:53 AM 64.0 °F - 48.0 °F 56% 29.94 in 10.0 mi South 8.1 mph - N/A   Mostly Cloudy
2:53 AM 62.1 °F - 48.9 °F 62% 29.95 in 10.0 mi South 5.8 mph - N/A   Clear
3:53 AM 63.0 °F - 48.9 °F 60% 29.95 in 10.0 mi South 4.6 mph - N/A   Mostly Cloudy
4:53 AM 64.0 °F - 48.9 °F 58% 29.96 in 10.0 mi South 5.8 mph - N/A   Mostly Cloudy
5:53 AM 64.0 °F - 50.0 °F 60% 29.97 in 10.0 mi South 8.1 mph - 0.00 in   Overcast
6:53 AM 63.0 °F - 51.1 °F 65% 29.99 in 10.0 mi South 8.1 mph - N/A   Mostly Cloudy
7:53 AM 64.9 °F - 53.1 °F 65% 30.00 in 10.0 mi South 10.4 mph 16.1 mph N/A   Clear
8:53 AM 66.9 °F - 55.0 °F 66% 30.03 in 10.0 mi South 8.1 mph - N/A   Mostly Cloudy
9:53 AM 69.1 °F - 57.0 °F 65% 30.03 in 10.0 mi SSW 9.2 mph 17.3 mph N/A   Scattered Clouds
10:53 AM 73.9 °F - 59.0 °F 59% 30.03 in 10.0 mi SSW 15.0 mph 21.9 mph N/A   Clear
11:53 AM 78.1 °F - 63.0 °F 60% 30.02 in 10.0 mi SSW 9.2 mph 20.7 mph N/A   Partly Cloudy
12:53 PM 80.1 °F 81.7 °F 64.0 °F 58% 30.01 in 10.0 mi SSW 9.2 mph 19.6 mph 0.00 in Rain Light Rain
1:53 PM 82.0 °F 83.4 °F 64.0 °F 54% 29.98 in 10.0 mi South 12.7 mph 19.6 mph 0.00 in   Clear
2:53 PM 81.0 °F 82.2 °F 63.0 °F 54% 29.97 in 10.0 mi South 10.4 mph - N/A   Clear
3:53 PM 82.0 °F 83.1 °F 63.0 °F 52% 29.97 in 10.0 mi South 10.4 mph - N/A   Clear
4:53 PM 81.0 °F 81.7 °F 61.0 °F 50% 29.97 in 10.0 mi South 8.1 mph - N/A   Clear
5:53 PM 79.0 °F - 62.1 °F 56% 29.97 in 10.0 mi SSE 5.8 mph - N/A   Clear
6:53 PM 75.0 °F - 57.9 °F 55% 29.98 in 10.0 mi SSE 4.6 mph - N/A   Clear
7:53 PM 71.1 °F - 59.0 °F 66% 29.99 in 10.0 mi South 3.5 mph - 0.00 in   Clear
8:53 PM 69.1 °F - 57.9 °F 68% 30.01 in 10.0 mi SSE 3.5 mph - N/A   Clear
9:53 PM 66.9 °F - 55.9 °F 68% 30.02 in 10.0 mi South 4.6 mph - N/A   Clear
10:53 PM 66.9 °F - 52.0 °F 59% 30.02 in 10.0 mi South 8.1 mph - N/A   Clear
11:53 PM 66.0 °F - 51.1 °F 59% 30.02 in 10.0 mi South 5.8 mph - N/A   Clear